TimeHADT,TemperatureF,Dew PointF,Humidity,Sea Level PressureIn,VisibilityMPH,Wind Direction,Wind SpeedMPH,Gust SpeedMPH,PrecipitationIn,Events,Conditions,WindDirDegrees,DateUTC
12:16 AM,35.6,28.4,75,29.59,10.0,Calm,Calm,-,N/A,,Overcast,0,2014-03-21 09:16:00
12:36 AM,35.6,30.2,81,29.60,10.0,Calm,Calm,-,N/A,,Mostly Cloudy,0,2014-03-21 09:36:00
12:56 AM,33.8,28.4,81,29.60,10.0,Calm,Calm,-,N/A,,Partly Cloudy,0,2014-03-21 09:56:00
1:16 AM,32.0,26.6,80,29.60,10.0,Calm,Calm,-,N/A,,Clear,0,2014-03-21 10:16:00
1:36 AM,32.0,26.6,80,29.61,10.0,Calm,Calm,-,N/A,,Clear,0,2014-03-21 10:36:00
1:56 AM,30.2,24.8,80,29.62,10.0,NNW,6.9,-,N/A,,Scattered Clouds,340,2014-03-21 10:56:00
2:16 AM,30.2,26.6,86,29.62,10.0,Calm,Calm,-,N/A,,Partly Cloudy,0,2014-03-21 11:16:00
2:36 AM,30.2,26.6,86,29.62,10.0,Calm,Calm,-,N/A,,Clear,0,2014-03-21 11:36:00
2:56 AM,30.2,26.6,86,29.63,10.0,Calm,Calm,-,N/A,,Scattered Clouds,0,2014-03-21 11:56:00
3:16 AM,30.2,26.6,86,29.64,10.0,Calm,Calm,-,N/A,,Partly Cloudy,0,2014-03-21 12:16:00
3:36 AM,30.2,26.6,86,29.64,10.0,WSW,5.8,-,N/A,,Partly Cloudy,240,2014-03-21 12:36:00
3:56 AM,30.2,26.6,86,29.64,10.0,WSW,4.6,-,N/A,,Clear,250,2014-03-21 12:56:00
4:16 AM,30.2,26.6,86,29.65,10.0,Calm,Calm,-,N/A,,Clear,0,2014-03-21 13:16:00
4:36 AM,28.4,24.8,86,29.66,10.0,NNW,3.5,-,N/A,,Partly Cloudy,330,2014-03-21 13:36:00
4:56 AM,28.4,24.8,86,29.66,10.0,Calm,Calm,-,N/A,,Mostly Cloudy,0,2014-03-21 13:56:00
5:16 AM,28.4,24.8,86,29.67,10.0,Calm,Calm,-,N/A,,Mostly Cloudy,0,2014-03-21 14:16:00
5:36 AM,28.4,24.8,86,29.67,10.0,Calm,Calm,-,N/A,,Partly Cloudy,0,2014-03-21 14:36:00
5:56 AM,28.4,24.8,86,29.68,10.0,WSW,4.6,-,N/A,,Clear,240,2014-03-21 14:56:00
6:16 AM,28.4,23.0,80,29.69,10.0,SW,5.8,-,N/A,,Clear,230,2014-03-21 15:16:00
6:36 AM,28.4,24.8,86,29.69,10.0,Calm,Calm,-,N/A,,Mostly Cloudy,0,2014-03-21 15:36:00
6:56 AM,30.2,26.6,86,29.70,10.0,West,3.5,-,N/A,,Overcast,280,2014-03-21 15:56:00
7:16 AM,30.2,26.6,86,29.71,10.0,Calm,Calm,-,N/A,,Overcast,0,2014-03-21 16:16:00
7:36 AM,32.0,26.6,80,29.73,10.0,West,3.5,-,N/A,,Overcast,260,2014-03-21 16:36:00
7:56 AM,33.8,28.4,81,29.73,10.0,West,4.6,-,N/A,,Overcast,260,2014-03-21 16:56:00
8:16 AM,33.8,28.4,81,29.74,10.0,WNW,3.5,-,N/A,,Overcast,290,2014-03-21 17:16:00
8:36 AM,35.6,28.4,75,29.75,10.0,Calm,Calm,-,N/A,,Overcast,0,2014-03-21 17:36:00
8:56 AM,35.6,28.4,75,29.76,10.0,Calm,Calm,-,N/A,,Overcast,0,2014-03-21 17:56:00
9:16 AM,35.6,28.4,75,29.77,10.0,SW,3.5,-,N/A,,Overcast,230,2014-03-21 18:16:00
9:36 AM,33.8,28.4,81,29.78,10.0,Calm,Calm,-,N/A,,Overcast,0,2014-03-21 18:36:00
9:56 AM,35.6,28.4,75,29.78,10.0,NW,5.8,-,N/A,,Overcast,310,2014-03-21 18:56:00
10:16 AM,35.6,28.4,75,29.79,10.0,Calm,Calm,-,N/A,,Overcast,0,2014-03-21 19:16:00
10:36 AM,37.4,30.2,75,29.81,10.0,SW,3.5,-,N/A,,Overcast,230,2014-03-21 19:36:00
10:56 AM,37.4,30.2,75,29.82,10.0,North,6.9,-,N/A,,Mostly Cloudy,350,2014-03-21 19:56:00
11:16 AM,39.2,33.8,81,29.83,10.0,North,8.1,-,N/A,,Overcast,350,2014-03-21 20:16:00
11:36 AM,39.2,33.8,81,29.84,10.0,North,6.9,-,N/A,,Overcast,360,2014-03-21 20:36:00
11:56 AM,39.2,35.6,87,29.84,10.0,North,5.8,-,N/A,,Overcast,10,2014-03-21 20:56:00
12:16 PM,41.0,35.6,81,29.84,10.0,North,12.7,-,N/A,,Overcast,10,2014-03-21 21:16:00
12:36 PM,41.0,35.6,81,29.85,10.0,North,11.5,-,N/A,,Overcast,10,2014-03-21 21:36:00
12:56 PM,41.0,33.8,76,29.86,10.0,North,12.7,-,N/A,,Overcast,360,2014-03-21 21:56:00
1:16 PM,42.8,33.8,70,29.87,10.0,North,9.2,-,N/A,,Overcast,350,2014-03-21 22:16:00
1:36 PM,42.8,35.6,76,29.87,10.0,North,12.7,-,N/A,,Mostly Cloudy,360,2014-03-21 22:36:00
1:56 PM,41.0,33.8,76,29.88,10.0,North,11.5,-,N/A,,Overcast,360,2014-03-21 22:56:00
2:16 PM,41.0,35.6,81,29.89,10.0,North,15.0,-,N/A,,Mostly Cloudy,360,2014-03-21 23:16:00
2:36 PM,41.0,33.8,76,29.90,10.0,North,12.7,-,N/A,,Mostly Cloudy,10,2014-03-21 23:36:00
2:56 PM,42.8,35.6,76,29.90,10.0,North,11.5,-,N/A,,Partly Cloudy,10,2014-03-21 23:56:00
3:16 PM,42.8,33.8,70,29.90,10.0,North,11.5,-,N/A,,Partly Cloudy,350,2014-03-22 00:16:00
3:36 PM,42.8,35.6,76,29.91,10.0,North,16.1,-,N/A,,Scattered Clouds,10,2014-03-22 00:36:00
3:56 PM,41.0,33.8,76,29.92,10.0,North,16.1,-,N/A,,Scattered Clouds,10,2014-03-22 00:56:00
4:16 PM,41.0,35.6,81,29.92,10.0,North,13.8,-,N/A,,Partly Cloudy,10,2014-03-22 01:16:00
4:36 PM,42.8,35.6,76,29.93,10.0,North,18.4,-,N/A,,Scattered Clouds,360,2014-03-22 01:36:00
4:56 PM,39.2,33.8,81,29.94,10.0,North,12.7,-,N/A,,Overcast,360,2014-03-22 01:56:00
5:16 PM,39.2,33.8,81,29.95,10.0,North,6.9,-,N/A,,Overcast,360,2014-03-22 02:16:00
5:36 PM,41.0,35.6,81,29.95,10.0,North,12.7,-,N/A,,Overcast,360,2014-03-22 02:36:00
5:56 PM,39.2,35.6,87,29.96,10.0,North,12.7,-,N/A,,Mostly Cloudy,360,2014-03-22 02:56:00
6:16 PM,39.2,33.8,81,29.97,10.0,North,8.1,-,N/A,,Mostly Cloudy,10,2014-03-22 03:16:00
6:36 PM,41.0,35.6,81,29.98,10.0,North,11.5,-,N/A,,Overcast,360,2014-03-22 03:36:00
6:56 PM,39.2,33.8,81,29.98,10.0,NE,10.4,-,N/A,,Overcast,50,2014-03-22 03:56:00
7:16 PM,39.2,33.8,81,29.99,10.0,NNE,11.5,-,N/A,,Overcast,30,2014-03-22 04:16:00
7:36 PM,39.2,33.8,81,30.00,10.0,NNE,9.2,-,N/A,,Overcast,30,2014-03-22 04:36:00
7:56 PM,39.2,33.8,81,30.02,10.0,NNE,10.4,-,N/A,,Overcast,30,2014-03-22 04:56:00
8:16 PM,37.4,33.8,87,30.03,10.0,North,11.5,-,N/A,,Overcast,10,2014-03-22 05:16:00
8:36 PM,37.4,33.8,87,30.04,10.0,North,9.2,-,N/A,,Overcast,360,2014-03-22 05:36:00
8:56 PM,37.4,33.8,87,30.04,10.0,NNE,10.4,-,N/A,,Overcast,30,2014-03-22 05:56:00
9:16 PM,37.4,33.8,87,30.04,7.0,North,10.4,-,N/A,,Overcast,10,2014-03-22 06:16:00
9:36 PM,37.4,33.8,87,30.05,10.0,NNE,8.1,-,N/A,,Overcast,20,2014-03-22 06:36:00
9:56 PM,37.4,33.8,87,30.05,10.0,NNE,11.5,-,N/A,,Overcast,30,2014-03-22 06:56:00
10:16 PM,37.4,33.8,87,30.06,10.0,NNE,8.1,-,N/A,,Overcast,20,2014-03-22 07:16:00
10:36 PM,37.4,33.8,87,30.08,10.0,North,4.6,-,N/A,,Overcast,10,2014-03-22 07:36:00
10:56 PM,37.4,33.8,87,30.09,8.0,East,8.1,-,N/A,,Overcast,90,2014-03-22 07:56:00
11:16 PM,37.4,33.8,87,30.10,10.0,East,10.4,-,N/A,,Overcast,80,2014-03-22 08:16:00
11:36 PM,37.4,33.8,87,30.11,10.0,East,13.8,-,N/A,,Overcast,100,2014-03-22 08:36:00
11:56 PM,37.4,33.8,87,30.11,10.0,East,11.5,-,N/A,,Overcast,90,2014-03-22 08:56:00